ARIANE 5 DEB (SYLDA), 43177

Orbit data source: Space-Track

ARIANE 5 DEB (SYLDA), 43177 is space debris in HEO originally from a launch on Thu, 25 Jan 2018 UTC launched from the French Guiana (FRGUI). Debris objects in space refer to the collection of defunct objects orbiting the Earth. Examples of debris include non-operational satellites, rocket bodies, and fragments generated from explosions, collisions, or faulty payload assembly.

Loading next visibility...
Identifier
43177, 2018-012D
Orbit
HEO
Country
Flag of FRFR
Related business
Manufacturer
ADS/Bremen
Mission
Spacecraft
Bus & Motor
SYLDA 5, Unknown motor
Mass
440 kg wet, 440 kg dry
Launch date (UTC)
2018-01-25 (8 years ago)
Launch vehicle
Unknown
Launch site
French Guiana (FRGUI)
Object type
Payload
Rocket body
Debris
Shape & HBR
Cyl, 2.8 m
Radar Cross Section
27.391 m², Large (>1 m²)

Expand to show TLE details & history
Last TLE update: 1 day ago

TLE from 1 day ago
0 ARIANE 5 DEB (SYLDA)
1 43177U 18012D   25260.91377394  .00078742  00000-0  14562-1 0  9999
2 43177  21.2151 328.2822 6916526 190.0428 141.0700  2.75833622 58613
Epoch: 2025-09-17T21:55Z
TLE epoch observation values (Epoch: 2025-09-17T21:55:50.068Z)
Latitude
0.00001°
Longitude
2.24626°
Altitude
28,756.174 km
Speed
2.033 km/s
True Right ascension
21h 53m 09s
True Declination
0° 00' 00"
Sunlit
Object was in daylight at epoch
Visualization orbit readout
Latitude
Unknown
Longitude
Unknown
Altitude
Unknown
Speed
Unknown
Apparent Right ascension
Unknown
Apparent Declination
Unknown
Sunlit
N/A
Visualization observer readout
Local Sidereal Time
15:14:36
Azimuth
Unknown
Elevation
Unknown
Doppler factor
Unknown
Orbital elements
Apogee altitude
29,960.637 km
Perigee altitude
245.544 km
Semi-major axis
21,481.228 km
Eccentricity
0.69165
Inclination
21.2151°
RAAN
328.2822°
Arg. of periapsis
190.0428°
True anomaly
169.95104°
Mean anomaly
141.07°
Eccentric anomaly
156.72751°
Mean motion
0.68937 °/min
Orbital period
522.21 mins
BSTAR
0.014562
Loading maneuver chart data...
Computing Atmospheric mass density...
Loading historical data...
Loading historical data...
Loading historical data...
Loading historical data...
Loading historical data...
Loading historical data...
Loading historical data...
Other satellites on launch #12 in the year 2018 (2018-01-25 UTC)

Documentation

Showing up to 5 results
|